When you browse on this site, cookies collect data to enhance your experience and personalize the content and advertising you see.
Visit our Privacy Policy to learn more. By continuing to use the site, you agree to this use of cookies and data.
  • In Denmark
  • List of Countries
  • For 7 days
  • Water Temperature
  • Satellite Maps
  • Weather Map
  • Weather Widgets
  • user-avatar
    Login

    Hourly Weather Barra

    Today, 24 April, Wednesday

    Time Temperature Precipitation Wind Pressure Humidity
    00:00 +24°C° 0.1 mm 2 mps 749 mmHg 94%
    01:00 +24°C° 0.1 mm 2 mps 749 mmHg 95%
    02:00 +22°C° 0.2 mm 3 mps 749 mmHg 95%
    03:00 +22°C° 0.2 mm 3 mps 749 mmHg 95%
    04:00 +22°C° 0 mm 3 mps 748 mmHg 95%
    05:00 +22°C° 0.1 mm 3 mps 749 mmHg 95%
    06:00 +22°C° 0.1 mm 3 mps 749 mmHg 94%
    07:00 +24°C° 0.1 mm 3 mps 749 mmHg 93%
    08:00 +25°C° 0 mm 3 mps 749 mmHg 86%
    09:00 +27°C° 0 mm 3 mps 749 mmHg 80%
    10:00 +29°C° 0 mm 3 mps 749 mmHg 70%
    11:00 +30°C° 0 mm 3 mps 749 mmHg 67%
    12:00 +30°C° 0 mm 3 mps 748 mmHg 64%
    13:00 +31°C° 0 mm 3 mps 748 mmHg 61%
    14:00 +31°C° 0 mm 3 mps 748 mmHg 63%
    15:00 +30°C° 0 mm 3 mps 747 mmHg 66%
    16:00 +29°C° 0 mm 3 mps 747 mmHg 72%
    17:00 +28°C° 0 mm 3 mps 747 mmHg 77%
    18:00 +27°C° 0 mm 3 mps 748 mmHg 82%
    19:00 +26°C° 0 mm 2 mps 748 mmHg 87%
    20:00 +26°C° 0.3 mm 2 mps 748 mmHg 89%
    21:00 +25°C° 0.3 mm 2 mps 748 mmHg 92%
    22:00 +25°C° 0 mm 2 mps 748 mmHg 95%
    23:00 +25°C° 0.4 mm 2 mps 748 mmHg 95%

    Tomorrow, 25 April, Thursday

    Time Temperature Precipitation Wind Pressure Humidity
    00:00 +24°C° 0.4 mm 2 mps 748 mmHg 95%
    01:00 +24°C° 0.4 mm 2 mps 748 mmHg 96%
    02:00 +24°C° 0.5 mm 2 mps 748 mmHg 96%
    03:00 +24°C° 0.5 mm 2 mps 747 mmHg 96%
    04:00 +24°C° 0.5 mm 2 mps 747 mmHg 96%
    05:00 +24°C° 0.3 mm 2 mps 747 mmHg 96%
    06:00 +24°C° 0.3 mm 2 mps 748 mmHg 95%
    07:00 +24°C° 0.3 mm 2 mps 748 mmHg 95%
    08:00 +26°C° 0.2 mm 1 mps 748 mmHg 88%
    09:00 +27°C° 0.2 mm 1 mps 748 mmHg 80%
    10:00 +29°C° 0.2 mm 1 mps 749 mmHg 73%
    11:00 +30°C° 0.1 mm 1 mps 748 mmHg 68%
    12:00 +31°C° 0.1 mm 2 mps 748 mmHg 63%
    13:00 +31°C° 0.1 mm 2 mps 747 mmHg 59%
    14:00 +31°C° 0 mm 2 mps 747 mmHg 60%
    15:00 +30°C° 0 mm 2 mps 747 mmHg 62%
    16:00 +30°C° 0 mm 2 mps 746 mmHg 64%
    17:00 +28°C° 0 mm 2 mps 747 mmHg 73%
    18:00 +26°C° 0 mm 1 mps 747 mmHg 82%
    19:00 +25°C° 0 mm 1 mps 747 mmHg 91%
    20:00 +24°C° 0.1 mm 1 mps 748 mmHg 92%
    21:00 +24°C° 0.1 mm 1 mps 748 mmHg 93%
    22:00 +24°C° 0.1 mm 1 mps 749 mmHg 95%
    23:00 +24°C° 0.2 mm 1 mps 749 mmHg 95%

    Day after tomorrow, 26 April, Friday

    Time Temperature Precipitation Wind Pressure Humidity
    00:00 +24°C° 0.2 mm 1 mps 749 mmHg 96%
    01:00 +24°C° 0.2 mm 1 mps 749 mmHg 96%
    02:00 +24°C° 0.3 mm 1 mps 748 mmHg 96%
    03:00 +24°C° 0.3 mm 1 mps 748 mmHg 96%
    04:00 +24°C° 0.3 mm 1 mps 747 mmHg 96%
    05:00 +24°C° 0.2 mm 1 mps 748 mmHg 96%
    06:00 +24°C° 0.2 mm 1 mps 748 mmHg 96%
    07:00 +24°C° 0.2 mm 2 mps 748 mmHg 95%
    08:00 +26°C° 0.1 mm 2 mps 749 mmHg 87%
    09:00 +27°C° 0.1 mm 2 mps 749 mmHg 79%
    10:00 +29°C° 0.1 mm 2 mps 749 mmHg 71%
    11:00 +30°C° 0.1 mm 3 mps 749 mmHg 68%
    12:00 +30°C° 0.1 mm 3 mps 748 mmHg 65%
    13:00 +31°C° 0.1 mm 3 mps 747 mmHg 63%
    14:00 +30°C° 0 mm 3 mps 747 mmHg 65%
    15:00 +30°C° 0 mm 3 mps 747 mmHg 67%
    16:00 +29°C° 0 mm 3 mps 746 mmHg 70%
    17:00 +28°C° 0.1 mm 3 mps 747 mmHg 78%
    18:00 +26°C° 0.1 mm 2 mps 747 mmHg 86%
    19:00 +25°C° 0.1 mm 2 mps 748 mmHg 94%
    20:00 +25°C° 0.1 mm 2 mps 748 mmHg 95%
    21:00 +25°C° 0.1 mm 2 mps 749 mmHg 96%
    22:00 +25°C° 0.1 mm 2 mps 749 mmHg 97%
    23:00 +24°C° 0.2 mm 2 mps 749 mmHg 97%

    27 April, Saturday

    Time Temperature Precipitation Wind Pressure Humidity
    00:00 +24°C° 0.2 mm 2 mps 749 mmHg 97%
    01:00 +24°C° 0.2 mm 2 mps 749 mmHg 97%
    02:00 +24°C° 0.1 mm 2 mps 748 mmHg 97%
    03:00 +24°C° 0.1 mm 2 mps 748 mmHg 97%
    04:00 +24°C° 0.1 mm 3 mps 748 mmHg 96%
    05:00 +24°C° 0.1 mm 3 mps 748 mmHg 96%
    06:00 +24°C° 0.1 mm 3 mps 749 mmHg 96%
    07:00 +24°C° 0.1 mm 3 mps 749 mmHg 95%
    08:00 +25°C° 0.1 mm 3 mps 749 mmHg 89%
    09:00 +27°C° 0.1 mm 3 mps 750 mmHg 82%
    10:00 +28°C° 0.1 mm 4 mps 750 mmHg 76%
    11:00 +29°C° 0.1 mm 4 mps 750 mmHg 70%
    12:00 +30°C° 0.1 mm 4 mps 749 mmHg 65%
    13:00 +32°C° 0.1 mm 4 mps 749 mmHg 60%
    14:00 +30°C° 0 mm 4 mps 748 mmHg 62%
    15:00 +30°C° 0 mm 4 mps 748 mmHg 63%
    16:00 +30°C° 0 mm 4 mps 748 mmHg 65%
    17:00 +28°C° 0 mm 4 mps 748 mmHg 74%
    18:00 +27°C° 0 mm 3 mps 749 mmHg 82%
    19:00 +25°C° 0 mm 3 mps 749 mmHg 91%
    20:00 +25°C° 0.4 mm 3 mps 750 mmHg 92%
    21:00 +25°C° 0.4 mm 3 mps 750 mmHg 93%
    22:00 +24°C° 0.4 mm 3 mps 751 mmHg 95%
    23:00 +23°C° 0.9 mm 4 mps 750 mmHg 95%

    28 April, Sunday

    Time Temperature Precipitation Wind Pressure Humidity
    00:00 +23°C° 0.9 mm 4 mps 750 mmHg 95%
    01:00 +23°C° 0.9 mm 4 mps 750 mmHg 96%
    02:00 +23°C° 1.4 mm 4 mps 749 mmHg 96%
    03:00 +23°C° 1.4 mm 4 mps 749 mmHg 96%
    04:00 +23°C° 1.4 mm 4 mps 749 mmHg 96%
    05:00 +23°C° 1.1 mm 4 mps 749 mmHg 96%
    06:00 +23°C° 1.1 mm 5 mps 750 mmHg 96%
    07:00 +23°C° 1.1 mm 5 mps 750 mmHg 96%
    08:00 +23°C° 0.9 mm 5 mps 751 mmHg 95%
    09:00 +25°C° 0.9 mm 5 mps 751 mmHg 94%
    10:00 +25°C° 0.9 mm 5 mps 751 mmHg 93%
    11:00 +26°C° 0.5 mm 5 mps 751 mmHg 88%
    12:00 +26°C° 0.5 mm 5 mps 750 mmHg 83%
    13:00 +27°C° 0.5 mm 6 mps 750 mmHg 78%
    14:00 +27°C° 0.3 mm 6 mps 750 mmHg 78%
    15:00 +27°C° 0.3 mm 6 mps 749 mmHg 78%
    16:00 +27°C° 0.3 mm 6 mps 749 mmHg 78%
    17:00 +26°C° 0.2 mm 5 mps 750 mmHg 82%
    18:00 +25°C° 0.2 mm 5 mps 750 mmHg 86%
    19:00 +23°C° 0.2 mm 5 mps 750 mmHg 90%
    20:00 +23°C° 0.1 mm 5 mps 751 mmHg 90%
    21:00 +23°C° 0.1 mm 5 mps 751 mmHg 90%
    22:00 +23°C° 0.1 mm 5 mps 751 mmHg 91%
    23:00 +23°C° 0.3 mm 5 mps 751 mmHg 91%

    29 April, Monday

    Time Temperature Precipitation Wind Pressure Humidity
    00:00 +23°C° 0.3 mm 5 mps 750 mmHg 92%
    01:00 +23°C° 0.3 mm 5 mps 750 mmHg 92%
    02:00 +23°C° 0.4 mm 5 mps 750 mmHg 92%
    03:00 +23°C° 0.4 mm 5 mps 750 mmHg 92%
    04:00 +22°C° 0.4 mm 5 mps 749 mmHg 92%
    05:00 +22°C° 0.4 mm 5 mps 750 mmHg 92%
    06:00 +22°C° 0.4 mm 5 mps 750 mmHg 92%
    07:00 +22°C° 0.4 mm 5 mps 750 mmHg 92%
    08:00 +23°C° 0.4 mm 6 mps 751 mmHg 90%
    09:00 +23°C° 0.4 mm 6 mps 751 mmHg 88%
    10:00 +24°C° 0.4 mm 6 mps 751 mmHg 86%
    11:00 +26°C° 0.4 mm 6 mps 751 mmHg 82%
    12:00 +26°C° 0.4 mm 6 mps 750 mmHg 78%
    13:00 +27°C° 0.4 mm 6 mps 749 mmHg 74%
    14:00 +27°C° 0.2 mm 6 mps 749 mmHg 75%
    15:00 +27°C° 0.2 mm 6 mps 749 mmHg 76%
    16:00 +27°C° 0.2 mm 5 mps 749 mmHg 77%
    17:00 +26°C° 0.3 mm 5 mps 749 mmHg 82%
    18:00 +25°C° 0.3 mm 5 mps 750 mmHg 87%
    19:00 +23°C° 0.3 mm 5 mps 750 mmHg 92%
    20:00 +23°C° 0.6 mm 5 mps 750 mmHg 92%
    21:00 +23°C° 0.6 mm 5 mps 751 mmHg 93%
    22:00 +23°C° 0.6 mm 5 mps 751 mmHg 94%
    23:00 +23°C° 0.6 mm 5 mps 750 mmHg 94%
    Show more